[Iaude] MPEC C15: 2024 BA5 [a=0.96,e=0.31,i=1.6,H=26.0]

mpec at marsden.cfa.harvard.edu mpec at marsden.cfa.harvard.edu
Thu Feb 1 16:37:53 EST 2024


M.P.E.C. 2024-C15                              Issued 2024 February 1, 21:36 UT

     The Minor Planet Electronic Circulars contain information on unusual
         minor planets, routine data on comets and natural satellites,
         and occasional editorial announcements.  They are published
    on behalf of Division F of the International Astronomical Union by the
          Minor Planet Center, Smithsonian Astrophysical Observatory,
                          Cambridge, MA 02138, U.S.A.
			  
             Prepared using the Tamkin Foundation Computer Network

                              MPC at CFA.HARVARD.EDU
            URL https://www.minorplanetcenter.net/    ISSN 1523-6714

                                    2024 BA5                                    


Observations:
     K24B05A* C2024 01 31.39177408 53 04.948-13 16 08.43         19.70wXEC015F52
     K24B05A  C2024 01 31.40145108 52 56.418-13 13 30.98         19.68wXEC015F52
     K24B05A  C2024 01 31.41114608 52 47.883-13 10 53.34         19.43wXEC015F52
     K24B05A  C2024 01 31.52850508 51 06.654-12 39 18.80         19.92GVEC015F52
     K24B05A  C2024 01 31.52915008 51 06.087-12 39 07.98         19.75GVEC015F52
     K24B05A  C2024 02 01.07053208 45 14.57 -10 21 25.5                WEC015X09
     K24B05A  C2024 02 01.07614408 45 10.66 -10 20 08.8                WEC015X09
     K24B05A KB2024 02 01.86981 08 37 32.27 -07 37 54.2          19.5 RZEC015106
     K24B05A KB2024 02 01.87336 08 37 30.25 -07 37 12.5          19.4 RZEC015106
     K24B05A KB2024 02 01.87690 08 37 28.21 -07 36 32.2                ZEC015106
     K24B05A KB2024 02 01.88059 08 37 26.10 -07 35 49.7          20.3 RZEC015106

Observer details:
106 Crni Vrh.  Observer H. Mikuz.  0.60-m f/3.3 reflector + CMO.
F52 Pan-STARRS 2, Haleakala.  Observers J. Herman, T. Lowe, P. Minguez, A.
    Schultz, I. Smith.  Measurers K. Chambers, T. de Boer, J. Fairlamb, H.
    Gao, M. Huber, C.-C. Lin, E. Magnier, Y. Ramanjooloo, R. Wainscoat, R.
    Weryk.  1.8-m Ritchey-Chretien + CCD.
X09 Deep Random Survey, Rio Hurtado.  Observers A. Schnabel, D. Ruhela.
    Measurer S. Deen.  0.43-m reflector + CMOS.

Orbital elements:
2024 BA5                                                 Earth MOID = 0.0113 AU
Epoch 2023 Sept. 13.0 TT = JDT 2460200.5                MPC                     
M 295.60280              (2000.0)            P               Q                  
n   1.05511709     Peri.   95.21858     +0.97499341     -0.22050967             
a   0.9555842      Node   277.52244     +0.19125982     +0.89590331             
e   0.3082138      Incl.    1.59696     +0.11317038     +0.38565885             
P   0.93           H   26.02          G   0.15           U   7                  
Residuals in seconds of arc
240131 F52  0.1+  0.0     240131 F52  0.2-  0.2+    240201 106  0.1+  0.3+
240131 F52  0.0   0.0     240201 X09  0.5-  0.1+    240201 106  0.1+  0.1+
240131 F52  0.0   0.1+    240201 X09  0.1+  0.1+    240201 106  0.2+  0.4+
240131 F52  0.2+  0.3-    240201 106  0.2-  0.7-

Ephemeris:
2024 BA5                 a,e,i = 0.96, 0.31, 2                   q = 0.6611
Date    TT    R. A. (2000) Decl.     Delta      r    Elong.  Phase     V
2024 01 02    19 13 44.5 -22 44 09   0.1331  0.8512     6.2   172.8
...
2024 01 17    18 35 10.3 -32 54 56   0.05135 0.9359    20.8   158.0    29.8
...
2024 01 25    14 23 53.9 -56 17 40   0.01979 0.9792    74.4   104.5    21.3
...
2024 01 31    08 58 21.1 -15 06 05   0.02976 1.0102   147.2    31.9    19.8
2024 02 01    08 45 49.6 -10 39 43   0.03390 1.0152   151.9    27.2    19.9
2024 02 02    08 36 21.2 -07 10 24   0.03829 1.0202   155.1    24.0    20.1
...
2024 02 08    08 08 22.2 +03 45 19   0.06731 1.0491   158.3    20.4    21.3
...
2024 02 16    07 57 24.0 +09 07 03   0.1097  1.0850   151.0    26.2    22.6
...
2024 03 02    07 58 51.1 +12 46 38   0.1971  1.1433   137.1    36.2    24.3

A. U. Tomatic                (C) Copyright 2024 MPC           M.P.E.C. 2024-C15





More information about the Iaude mailing list